Regional Weather Roundup
Issued by NWS

Home | Current Version | Previous Version | Text Only | Print | Product List | Glossary On
Versions: 1 2 3 4 5 6 7 8 9 10 11 12 13 14 15 16 17 18 19 20 21 22 23 24 25 26 27 28 29 30 31 32 33 34 35 36 37 38 39 40 41 42 43 44 45 46 47 48 49 50
000
ASUS43 KMPX 160801
RWRMN
WEATHER ROUNDUP FOR MINNESOTA
NATIONAL WEATHER SERVICE TWIN CITIES/CHANHASSEN MN
200 AM CST TUE JAN 16 2018


NOTE: "FAIR" INDICATES FEW OR NO CLOUDS BELOW 12,000 FEET WITH NO
SIGNIFICANT WEATHER AND/OR OBSTRUCTIONS TO VISIBILITY. N/A MEANS
CURRENT SKY AND/OR WEATHER CONDITIONS ARE NOT AVAILABLE.

MNZ060>063-068>070-160900-
   Twin Cities Metro

CITY           SKY/WX    TMP DP  RH WIND       PRES   REMARKS
TWIN CITIES    FAIR      -1  -5  82 NW9       30.60R WCI -16
ST PAUL        FAIR       1  -4  79 NW13      30.62R WCI -17
CRYSTAL        FAIR      -2  -9  72 NW7       30.60R WCI -15
BLAINE         FAIR       1  -4  78 NW7       30.59R WCI -11
LAKEVILLE      FAIR      -2  -6  84 NW12      30.58R WCI -20
EDEN PRAIRIE   FAIR       0  -6  76 NW10      30.60R WCI -16
SOUTH ST PAUL  FAIR       2  -4  77 NW8       30.60R WCI -12
LAKE ELMO      FAIR       3   0  85 NW7       30.59R WCI  -9
$$
MNZ001>005-007-008-013>017-022>024-027-028-160900-
   Northwest Minnesota

CITY           SKY/WX    TMP DP  RH WIND       PRES   REMARKS
BEMIDJI        CLOUDY    -8 -11  85 NW9       30.68R WCI -25
HALLOCK        FAIR     -15 -20  76 CALM      30.82S
ROSEAU         FAIR     -17 -22  76 W7        30.76F WCI -33
WARROAD        FAIR     -17 -22  76 W7        30.74F WCI -33
CROOKSTON      FAIR     -15 -20  76 N12       30.83S WCI -36
FOSSTON        CLOUDY   -15 -18  84 NW8       30.74S WCI -32
DETROIT LAKES  CLOUDY   -11 -17  77 NW15      30.72R WCI -34
MOORHEAD       CLOUDY   -11 -18  70 N15       30.81S WCI -34
PARK RAPIDS    CLOUDY    -3  -8  79 N7        30.64S WCI -16
MAHNOMEN       CLOUDY   -13 -18  78 N10       30.75R WCI -32
$$
MNZ006-009>011-018-025>026-160900-
   North Central Minnesota

CITY           SKY/WX    TMP DP  RH WIND       PRES   REMARKS
BAUDETTE       CLOUDY   -14 -19  79 NW6       30.70F WCI -28
FLAG ISLAND    FAIR     -17 -20  83 NW6       30.73S WCI -31
INTL FALLS     FLURRIES  -1  -5  82 NW8       30.67F WCI -15
WASKISH        CLOUDY    -6  -9  84 N3        30.70S
BIG FORK       CLOUDY     0  -6  78 N5        30.65R WCI -10
LONGVILLE      FAIR      -6  -9  84 CALM      30.65R
GRAND RAPIDS   FLURRIES  -1  -5  82 N13       30.64S WCI -19
CRANE LAKE     FLURRIES   0  -2  92 N5        30.67S WCI -10
ORR            CLOUDY     0  -6  78 NW3       30.61R
COOK           CLOUDY     0  -2  92 NW5       30.63R WCI -10
WALKER         CLOUDY    -4  -8  84 N8        30.66R WCI -19
$$
MNZ012-019>021-037-160900-
   Northeast Minnesota

CITY           SKY/WX    TMP DP  RH WIND       PRES   REMARKS
DULUTH         MOCLDY     1  -2  87 N15       30.55R WCI -18
ELY            CLOUDY     1  -2  85 N5        30.59R WCI  -8
HIBBING        CLOUDY    -1  -4  87 N13       30.60S WCI -19
EVELETH        CLOUDY     0  -6  78 N6        30.60S WCI -12
DULUTH HARBOR  CLOUDY     9   3  78 NW14      30.62R WCI  -8
TWO HARBORS    FAIR       7   0  72 NW5       30.54R WCI  -2
SILVER BAY     FAIR       5   1  85 N3        30.53R
GRAND MARAIS     N/A     11   3  70 N16G32    30.55R WCI  -6
G MARAIS ARPRT MIX PCPN   1  -2  85 N10       30.48R WCI -14
$$
MNZ029>031-032-039>041-046>048-054>057-064-160900-
   West Central Minnesota

CITY           SKY/WX    TMP DP  RH WIND       PRES   REMARKS
FERGUS FALLS   MOCLDY   -13 -18  77 N15       30.79R WCI -36
WHEATON        CLOUDY    -9 -15  77 NW13      30.79S WCI -30
MORRIS         CLOUDY   -11 -17  77 NW17      30.72R WCI -35
ALEXANDRIA     CLOUDY   -10 -15  78 NW8       30.65R WCI -26
ELBOW LAKE     MOCLDY   -12 -17  79 W15       30.72R HAZE    WCI -35
WADENA         CLOUDY   -11 -15  84 NW6       30.65S WCI -25
GLENWOOD       FAIR     -11 -15  84 NW10      30.66R WCI -30
APPLETON       CLOUDY    -9 -17  70 NW12      30.75R WCI -29
BENSON         CLOUDY   -11 -17  77 N16       30.72R WCI -34
ORTONVILLE     CLOUDY    -9 -17  70 NW14G22   30.74S WCI -31
MADISON        CLOUDY    -6 -13  71 NW15G23   30.75R WCI -27
WILLMAR        CLOUDY   -11 -17  77 NW15      30.69R WCI -34
$$
MNZ033>034-036-042>043-049>051-058-059-160900-
   Central Minnesota

CITY           SKY/WX    TMP DP  RH WIND       PRES   REMARKS
ST CLOUD       CLOUDY    -1  -5  82 N12       30.62R WCI -18
SAUK CENTRE      N/A     -9 -14  80 NW8       30.65S WCI -26
PAYNESVILLE    CLOUDY    -7 -11  83 NW9       30.65R WCI -24
AITKIN         CLOUDY    -2  -6  84 NW6       30.62R WCI -14
PINE RIVER     FAIR      -8 -11  84 N3        30.66S
BRAINERD       CLOUDY    -1  -6  79 N10       30.64R WCI -17
STAPLES        FAIR      -9 -13  84 N5        30.65S WCI -21
LONG PRAIRIE   MOCLDY    -4  -8  84 NW9       30.65R WCI -20
LITTLE FALLS   CLOUDY     0  -9  65 N7        30.66R WCI -13
LITCHFIELD     CLOUDY    -2  -8  78 NW7       30.64R WCI -16
BUFFALO        CLOUDY     1  -4  81 NW8       30.63R WCI -14
MAPLE LAKE     CLOUDY     1  -2  85 MISG      30.62R
HUTCHINSON     CLOUDY    -3  -8  80 NW13      30.63S WCI -22
$$
MNZ037-044-045-052-053-160900-
   East Central Minnesota

CITY           SKY/WX    TMP DP  RH WIND       PRES   REMARKS
PRINCETON      FAIR       0  -4  85 NW8       30.60R WCI -15
MORA           FAIR       1  -2  85 N10       30.60S WCI -14
CAMBRIDGE      FAIR       1  -6  71 NW5       30.60R WCI  -8
RUSH CITY      MOCLDY     2  -2  83 N7        30.59R WCI -11
MOOSE LAKE     FLURRIES   3   0  85 N6        30.58S WCI  -8
HINCKLEY       FAIR       3   0  85 N8        30.59R WCI -10
CLOQUET        MOCLDY     1  -2  85 NW15      30.56S WCI -18
MCGREGOR       CLOUDY     3   0  85 N12       30.62R WCI -13
$$
MNZ071>073-080-081-089-090-097-098-160900-
   Southwest Minnesota

CITY           SKY/WX    TMP DP  RH WIND       PRES   REMARKS
MONTEVIDEO     CLOUDY   -11 -17  77 N13       30.73R WCI -32
GRANITE FALLS  CLOUDY    -7 -13  74 NW18      30.73S WCI -30
CANBY          CLOUDY    -6 -12  75 W13       30.74R WCI -26
MARSHALL       CLOUDY    -9 -14  78 NW16G25   30.71R WCI -32
REDWOOD FALLS  CLOUDY    -9 -14  78 NW15      30.69R WCI -31
OLIVIA         CLOUDY    -8 -13  77 NW14G21   30.68R WCI -28
PIPESTONE      CLOUDY    -8 -11  84 N12G18    30.62F WCI -27
WINDOM         CLOUDY    -9 -24  49 NW18G25   30.62R HAZE    WCI -33
WORTHINGTON    PTCLDY   -10 -15  78 NW22      30.62R WCI -36
JACKSON        FLURRIES  -8 -15  71 NW20G28   30.61R WCI -32
SLAYTON        PTCLDY   -10 -15  78 NW15G21   30.63R WCI -33
$$
MNZ065>067-074>077-082>085-091>093-160900-
   South Central Minnesota

CITY           SKY/WX    TMP DP  RH WIND       PRES   REMARKS
MANKATO        FLURRIES  -7 -12  79 NW14      30.62R WCI -28
NEW ULM        CLOUDY    -9 -15  77 NW16      30.65R WCI -32
ST JAMES       LGT SNOW  -8 -13  77 NW22      30.65R WCI -33
FAIRMONT       LGT SNOW  -7 -12  79 NW22G28   30.62R WCI -32
FARIBAULT      FLURRIES   0  -6  78 NW7       30.58R WCI -13
OWATONNA       CLOUDY    -2  -6  84 NW12      30.56R WCI -20
WASECA         MOCLDY    -2  -8  78 NW13      30.60R WCI -21
ALBERT LEA     CLOUDY    -6 -11  77 NW8G16    30.54R HAZE    WCI -21
$$
MNZ078>079-086>088-094>096-160900-
   Southeast Minnesota

CITY           SKY/WX    TMP DP  RH WIND       PRES   REMARKS
ROCHESTER      CLOUDY     1  -2  87 NW16      30.49R WCI -19
RED WING       FLURRIES   3  -4  72 W7        30.56R WCI  -9
STANTON        FAIR       1  -4  77 NW8       30.57R WCI -12
DODGE CENTER   LGT SNOW   1  -4  78 NW20      30.50R WCI -20
WINONA         FLURRIES  10   5  79 NW10G17     N/A  WCI  -3
AUSTIN         FLURRIES  -2  -8  78 N14       30.51R WCI -21
PRESTON        LGT SNOW   3  -2  80 NW13      30.48R WCI -14
$$
ABBREVIATIONS USED IN REMARKS
   TC - TEMPERATURES IN CELSIUS
  WCI - WIND CHILL INDEX
   HX - HEAT INDEX
  VSB - VISIBILITY
$$




USA.gov is the U.S. government's official web portal to all federal, state and local government web resources and services.